GW0881 Weather Reports


Display with metric or nautical units.
time (UTC)temp
F
wind
direction
speed
MPH
gust
MPH
rain 1hr
in
rain 24hr
in
rain mn
in
humidity
%
barometer
mb
20260906110839 65 208 0.0 0.0 0.00 0.00 0.00 98 1016.8
20260906110335 65 208 0.0 0.0 0.00 0.00 0.00 98 1016.8
20260906105833 66 209 0.0 0.0 0.00 0.00 0.00 98 1016.8
20260906105329 65 209 0.0 0.0 0.00 0.00 0.00 98 1016.6
20260906104825 65 209 0.0 0.0 0.00 0.00 0.00 98 1016.6
20260906104323 65 209 0.0 0.0 0.00 0.00 0.00 98 1016.6
20260906103821 65 209 0.0 0.0 0.00 0.00 0.00 98 1016.5
20260906103315 66 208 0.0 0.0 0.00 0.00 0.00 98 1016.2
20260906102811 66 208 0.0 0.0 0.00 0.00 0.00 98 1016.3
20260906102310 66 209 0.0 0.0 0.00 0.00 0.00 98 1016.2
20260906101805 66 209 0.0 0.0 0.00 0.00 0.00 98 1016.2
20260906101300 66 209 0.0 0.0 0.00 0.00 0.00 98 1016.4
20260906100756 66 209 0.0 0.0 0.00 0.00 0.00 98 1016.5
20260906100254 66 209 0.0 0.0 0.00 0.00 0.00 98 1016.3
20260906095750 67 203 0.0 0.0 0.00 0.00 0.00 98 1016.2
20260906095245 67 208 0.0 0.0 0.00 0.00 0.00 98 1016.4
20260906094744 67 209 0.0 0.0 0.00 0.00 0.00 98 1016.2
20260906094240 67 209 0.0 0.0 0.00 0.00 0.00 98 1016.1
20260906093736 67 209 0.0 0.0 0.00 0.00 0.00 98 1015.8
20260906093231 67 209 0.0 0.0 0.00 0.00 0.00 98 1016.0
20260906092727 67 209 0.0 0.0 0.00 0.00 0.00 98 1015.7
20260906092226 67 209 0.0 0.0 0.00 0.00 0.00 98 1015.7
20260906091722 67 209 0.0 0.0 0.00 0.00 0.00 98 1015.6
20260906091218 67 209 0.0 0.0 0.00 0.00 0.00 98 1015.6
20260906090715 67 209 0.0 0.0 0.00 0.00 0.00 98 1015.7
20260906090213 67 210 0.0 0.0 0.00 0.00 0.00 98 1015.7
20260906085713 67 209 0.0 0.0 0.00 0.00 0.00 97 1015.8
20260906085212 68 210 0.0 0.0 0.00 0.00 0.00 97 1015.8
20260906084707 68 209 0.0 0.0 0.00 0.00 0.00 97 1015.6
20260906084201 68 209 0.0 0.0 0.00 0.00 0.00 97 1015.6
20260906083655 68 209 0.0 0.0 0.00 0.00 0.00 97 1015.6
20260906083151 68 209 0.0 0.0 0.00 0.00 0.00 97 1015.6
20260906082646 68 209 0.0 0.0 0.00 0.00 0.00 97 1015.7
20260906082142 68 207 0.0 0.0 0.00 0.00 0.00 97 1015.6
20260906081638 68 167 1.0 1.0 0.00 0.00 0.00 97 1015.5
20260906081132 68 208 0.0 0.0 0.00 0.00 0.00 97 1015.6
20260906080629 68 208 0.0 0.0 0.00 0.00 0.00 97 1015.7
20260906080124 68 208 0.0 0.0 0.00 0.00 0.00 97 1015.6
20260906075619 68 207 0.0 0.0 0.00 0.00 0.00 97 1015.4
20260906075113 68 207 0.0 0.0 0.00 0.00 0.00 96 1015.4
20260906074609 68 208 0.0 0.0 0.00 0.00 0.00 96 1015.5
20260906074107 68 208 0.0 0.0 0.00 0.00 0.00 96 1015.7
20260906073602 68 210 0.0 0.0 0.00 0.00 0.00 96 1015.8
20260906073058 68 209 0.0 0.0 0.00 0.00 0.00 96 1015.8
20260906072552 68 210 0.0 0.0 0.00 0.00 0.00 96 1015.6
20260906072049 69 209 0.0 0.0 0.00 0.00 0.00 96 1015.5
20260906071545 69 209 0.0 0.0 0.00 0.00 0.00 96 1015.8
20260906071040 69 210 0.0 0.0 0.00 0.00 0.00 96 1015.8
20260906070536 69 213 0.0 0.0 0.00 0.00 0.00 96 1015.8
20260906070032 69 213 0.0 0.0 0.00 0.00 0.00 96 1016.1
20260906065531 69 213 0.0 0.0 0.00 0.00 0.00 96 1015.9
20260906065027 69 213 0.0 0.0 0.00 0.00 0.00 96 1016.1
20260906064522 69 213 0.0 0.0 0.00 0.00 0.00 96 1016.3
20260906064017 69 213 0.0 0.0 0.00 0.00 0.00 96 1016.2
20260906063513 69 213 0.0 0.0 0.00 0.00 0.00 96 1016.1
20260906063008 69 213 0.0 0.0 0.00 0.00 0.00 96 1016.2
20260906062503 69 213 0.0 0.0 0.00 0.00 0.00 96 1016.2
20260906061957 69 213 0.0 0.0 0.00 0.00 0.00 96 1016.1
20260906061454 69 213 0.0 0.0 0.00 0.00 0.00 96 1015.9
20260906060947 69 213 0.0 0.0 0.00 0.00 0.00 96 1016.0
20260906060445 69 213 0.0 0.0 0.00 0.00 0.00 96 1015.9
20260906055941 69 213 0.0 0.0 0.00 0.00 0.00 96 1016.0
20260906055437 69 213 0.0 0.0 0.00 0.00 0.00 96 1016.0
20260906054932 69 213 0.0 0.0 0.00 0.00 0.00 96 1016.0
20260906054427 69 213 0.0 0.0 0.00 0.00 0.00 96 1016.1
20260906053922 69 213 0.0 0.0 0.00 0.00 0.00 96 1015.9
20260906053419 69 213 0.0 0.0 0.00 0.00 0.00 96 1015.9
20260906052914 69 213 0.0 0.0 0.00 0.00 0.00 96 1015.9
20260906052410 69 213 0.0 0.0 0.00 0.00 0.00 95 1016.1
20260906051907 69 213 0.0 0.0 0.00 0.00 0.00 96 1015.8
20260906051407 69 214 0.0 0.0 0.00 0.00 0.00 95 1016.0
20260906050903 69 214 0.0 0.0 0.00 0.00 0.00 95 1016.1
20260906050357 69 214 0.0 0.0 0.00 0.00 0.00 95 1016.0
20260906045856 69 214 0.0 0.0 0.00 0.00 0.00 95 1016.1
20260906045355 69 214 0.0 0.0 0.00 0.00 0.00 95 1016.0
20260906044851 69 214 0.0 0.0 0.00 0.00 0.00 95 1015.9
20260906044346 69 214 0.0 0.0 0.00 0.00 0.00 95 1016.0
20260906043842 69 214 0.0 0.0 0.00 0.00 0.00 95 1016.1
20260906043338 69 210 0.0 0.0 0.00 0.00 0.00 95 1016.3
20260906042833 69 209 0.0 0.0 0.00 0.00 0.00 94 1016.0
20260906042331 69 209 0.0 0.0 0.00 0.00 0.00 94 1016.3
20260906041827 69 209 0.0 0.0 0.00 0.00 0.00 94 1016.4
20260906041323 69 209 0.0 0.0 0.00 0.00 0.00 94 1016.3
20260906040823 70 209 0.0 0.0 0.00 0.00 0.00 94 1016.3
20260906040318 70 210 0.0 0.0 0.00 0.00 0.00 93 1016.2
20260906035813 70 209 0.0 0.0 0.00 0.00 0.00 93 1016.4
20260906035308 70 209 0.0 0.0 0.00 0.00 0.00 93 1016.2
20260906034803 70 209 0.0 0.0 0.00 0.00 0.00 93 1016.4
20260906034258 70 209 0.0 0.0 0.00 0.00 0.00 92 1016.4
20260906033754 71 209 0.0 0.0 0.00 0.00 0.00 92 1016.4
20260906033253 71 209 0.0 0.0 0.00 0.00 0.00 92 1016.3
20260906032749 71 209 0.0 0.0 0.00 0.00 0.00 92 1016.1
20260906032244 71 209 0.0 0.0 0.00 0.00 0.00 91 1016.3
20260906031739 71 209 0.0 0.0 0.00 0.00 0.00 91 1016.2
20260906031235 72 209 0.0 0.0 0.00 0.00 0.00 91 1016.3
20260906030729 72 209 0.0 0.0 0.00 0.00 0.00 91 1016.5
20260906030224 72 209 0.0 0.0 0.00 0.00 0.00 90 1016.4
20260906025723 72 209 0.0 0.0 0.00 0.00 0.00 90 1016.4
20260906025218 72 209 0.0 0.0 0.00 0.00 0.00 90 1016.1
20260906024717 72 209 0.0 0.0 0.00 0.00 0.00 89 1016.1
20260906024216 72 209 0.0 0.0 0.00 0.00 0.00 89 1016.3
20260906023712 72 210 0.0 0.0 0.00 0.00 0.00 89 1016.4
20260906023207 72 210 0.0 0.0 0.00 0.00 0.00 89 1016.4
20260906022702 72 210 0.0 0.0 0.00 0.00 0.00 89 1016.2
20260906022158 72 210 0.0 0.0 0.00 0.00 0.00 89 1016.3
20260906021654 72 210 0.0 0.0 0.00 0.00 0.00 88 1015.9
20260906021152 72 214 0.0 0.0 0.00 0.00 0.00 88 1016.0
20260906020647 72 215 0.0 0.0 0.00 0.00 0.00 88 1016.0
20260906020142 72 210 0.0 0.0 0.00 0.00 0.00 87 1015.7
20260906015636 72 209 0.0 0.0 0.00 0.00 0.00 87 1015.4
20260906015134 73 209 0.0 0.0 0.00 0.00 0.00 86 1015.5
20260906014629 73 208 0.0 0.0 0.00 0.00 0.00 85 1015.3
20260906014125 73 209 0.0 0.0 0.00 0.00 0.00 85 1015.0
20260906013620 72 209 1.0 2.0 0.00 0.00 0.00 88 1014.8
20260906013116 72 209 0.0 0.0 0.00 0.00 0.00 87 1014.7
20260906012611 73 209 0.0 0.0 0.00 0.00 0.00 87 1014.3
20260906012110 73 209 0.0 0.0 0.00 0.00 0.00 86 1014.4
20260906011606 73 209 0.0 0.0 0.00 0.00 0.00 86 1014.2
20260906011101 73 209 0.0 0.0 0.00 0.00 0.00 85 1014.1
20260906010556 74 209 0.0 0.0 0.00 0.00 0.00 84 1013.9
20260906010052 75 207 0.0 0.0 0.00 0.00 0.00 83 1013.8
20260906005552 75 207 0.0 0.0 0.00 0.00 0.00 82 1013.6
20260906005051 76 207 0.0 0.0 0.00 0.00 0.00 81 1013.9
20260906004550 76 217 0.0 0.0 0.00 0.00 0.00 80 1013.9
20260906004045 77 217 0.0 0.0 0.00 0.00 0.00 78 1013.9
20260906003540 78 217 0.0 0.0 0.00 0.00 0.00 77 1013.7
20260906003037 78 217 0.0 0.0 0.00 0.00 0.00 76 1013.7
20260906002531 79 219 0.0 0.0 0.00 0.00 0.00 74 1013.6
20260906002026 79 219 0.0 0.0 0.00 0.00 0.00 73 1013.6
20260906001521 79 222 0.0 0.0 0.00 0.00 0.00 73 1013.6
20260906001015 80 206 0.0 0.0 0.00 0.00 0.00 72 1013.5
20260906000512 80 209 0.0 0.0 0.00 0.00 0.00 71 1013.4
20260906000006 80 208 0.0 0.0 0.00 0.00 0.00 71 1013.5
20260905235500 80 206 0.0 0.0 0.00 0.00 0.00 70 1013.5
20260905234955 80 223 0.0 0.0 0.00 0.00 0.00 69 1013.8
20260905234450 81 202 0.0 0.0 0.00 0.00 0.00 69 1013.6
20260905233944 81 211 0.0 0.0 0.00 0.00 0.00 69 1013.8
20260905233440 81 261 1.0 1.0 0.00 0.00 0.00 69 1013.9
20260905232939 81 228 0.0 0.0 0.00 0.00 0.00 69 1013.8
20260905232435 81 173 1.0 1.0 0.00 0.00 0.00 69 1013.7
20260905231931 81 210 0.0 0.0 0.00 0.00 0.00 69 1013.5
20260905231426 81 239 1.0 1.0 0.00 0.00 0.00 70 1013.2
20260905230922 81 81 2.0 2.0 0.00 0.00 0.00 71 1013.1
20260905230421 81 298 2.0 2.0 0.00 0.00 0.00 70 1013.2
20260905225919 82 217 0.0 0.0 0.00 0.00 0.00 69 1013.5
20260905225415 82 198 1.0 1.0 0.00 0.00 0.00 70 1013.5
20260905224909 82 192 0.0 1.0 0.00 0.00 0.00 69 1013.1
20260905224406 82 225 0.0 0.0 0.00 0.00 0.00 69 1013.5
20260905223900 82 200 1.0 1.0 0.00 0.00 0.00 70 1013.4
20260905223358 82 192 1.0 1.0 0.00 0.00 0.00 68 1013.0
20260905222857 82 186 2.0 2.0 0.00 0.00 0.00 69 1012.9
20260905222356 82 186 1.0 1.0 0.00 0.00 0.00 69 1012.8
20260905221853 82 187 1.0 1.0 0.00 0.00 0.00 70 1012.9
20260905221350 82 194 0.0 1.0 0.00 0.00 0.00 69 1012.9
20260905220845 82 85 2.0 2.0 0.00 0.00 0.00 70 1013.0
20260905220341 82 154 0.0 1.0 0.00 0.00 0.00 69 1013.1
20260905215840 82 213 0.0 1.0 0.00 0.00 0.00 67 1013.2
20260905215336 82 189 0.0 1.0 0.00 0.00 0.00 69 1013.4
20260905214833 82 199 0.0 1.0 0.00 0.00 0.00 67 1013.5
20260905214333 82 210 0.0 1.0 0.00 0.00 0.00 69 1013.6
20260905213827 82 18 5.0 8.0 0.00 0.00 0.00 68 1013.6
20260905213324 82 97 2.0 3.0 0.00 0.00 0.00 69 1013.8
20260905212819 82 11 3.0 5.0 0.00 0.00 0.00 69 1013.9
20260905212318 82 240 1.0 1.0 0.00 0.00 0.00 71 1013.5
20260905211813 81 338 2.0 3.0 0.00 0.00 0.00 71 1013.5
20260905211308 81 37 3.0 5.0 0.00 0.00 0.00 70 1013.6
20260905210805 81 80 3.0 3.0 0.00 0.00 0.00 73 1013.6
20260905210304 81 20 4.0 5.0 0.00 0.00 0.00 73 1013.7
20260905205803 81 40 5.0 7.0 0.00 0.00 0.00 74 1013.8
20260905205258 81 80 3.0 5.0 0.00 0.00 0.00 75 1013.8
20260905204757 81 231 2.0 3.0 0.00 0.00 0.00 75 1014.0
20260905204254 81 200 1.0 1.0 0.00 0.00 0.00 77 1014.3
20260905203752 80 162 2.0 3.0 0.00 0.00 0.00 75 1014.2
20260905203248 80 46 4.0 7.0 0.00 0.00 0.00 76 1014.6
20260905202743 80 44 4.0 5.0 0.00 0.00 0.00 75 1014.5
20260905202238 80 156 1.0 1.0 0.00 0.00 0.00 76 1014.8
20260905201734 80 56 3.0 5.0 0.00 0.00 0.00 77 1014.8
20260905201229 80 39 3.0 5.0 0.00 0.00 0.00 75 1014.8
20260905200724 80 320 1.0 2.0 0.00 0.00 0.00 77 1015.0
20260905200220 80 173 1.0 1.0 0.00 0.00 0.00 77 1015.2
20260905195717 80 33 2.0 3.0 0.00 0.00 0.00 78 1015.4
20260905195212 79 137 0.0 0.0 0.00 0.00 0.00 77 1015.2
20260905194708 79 153 2.0 3.0 0.00 0.00 0.00 78 1015.3
20260905194207 79 190 1.0 1.0 0.00 0.00 0.00 78 1015.3
20260905193702 79 193 1.0 1.0 0.00 0.00 0.00 76 1015.3
20260905193157 78 231 1.0 1.0 0.00 0.00 0.00 77 1015.4
20260905192652 78 280 1.0 1.0 0.00 0.00 0.00 80 1015.2
20260905192149 78 196 1.0 1.0 0.00 0.00 0.00 79 1015.7
20260905191648 77 211 0.0 0.0 0.00 0.00 0.00 81 1015.7
20260905191145 77 164 1.0 2.0 0.00 0.00 0.00 81 1015.7
20260905190639 77 183 1.0 1.0 0.00 0.00 0.00 82 1015.8
20260905190138 78 213 0.0 0.0 0.00 0.00 0.00 81 1015.8
20260905185638 78 224 1.0 2.0 0.00 0.00 0.00 80 1015.7
20260905185138 78 200 0.0 0.0 0.00 0.00 0.00 81 1015.6
20260905184632 77 223 0.0 0.0 0.00 0.00 0.00 81 1015.8
20260905184131 77 216 0.0 1.0 0.00 0.00 0.00 81 1015.8
20260905183630 77 213 1.0 2.0 0.00 0.00 0.00 80 1015.9
20260905183126 77 228 0.0 0.0 0.00 0.00 0.00 82 1016.0
20260905182620 76 195 0.0 1.0 0.00 0.00 0.00 82 1015.8
20260905182119 76 218 0.0 0.0 0.00 0.00 0.00 82 1016.0
20260905181614 76 206 0.0 0.0 0.00 0.00 0.00 83 1016.0
20260905181113 76 220 0.0 0.0 0.00 0.00 0.00 82 1016.1
20260905180608 76 202 0.0 0.0 0.00 0.00 0.00 83 1016.2
20260905180104 76 204 0.0 1.0 0.00 0.00 0.00 83 1016.2
20260905175603 75 196 3.0 3.0 0.00 0.00 0.00 83 1016.4
20260905175058 75 206 1.0 1.0 0.00 0.00 0.00 84 1016.3
20260905174553 74 213 2.0 3.0 0.00 0.00 0.00 85 1016.3
20260905174049 74 194 1.0 1.0 0.00 0.00 0.00 85 1016.3
20260905173546 74 197 1.0 2.0 0.00 0.00 0.00 86 1016.3
20260905173041 73 192 2.0 2.0 0.00 0.00 0.00 86 1016.5
20260905172539 73 186 1.0 1.0 0.00 0.00 0.00 88 1016.4
20260905172034 72 197 1.0 1.0 0.00 0.00 0.00 88 1016.6
20260905171531 72 188 0.0 0.0 0.00 0.00 0.00 89 1016.4
20260905171027 72 199 1.0 2.0 0.00 0.00 0.00 90 1016.6
20260905170523 71 190 0.0 0.0 0.00 0.00 0.00 90 1016.6
20260905170018 71 201 0.0 1.0 0.00 0.00 0.00 91 1016.4
20260905165513 70 191 1.0 1.0 0.00 0.00 0.00 92 1016.6
20260905165008 69 162 2.0 3.0 0.00 0.00 0.00 94 1016.5
20260905164502 69 230 0.0 0.0 0.00 0.00 0.00 97 1016.5
20260905163956 68 180 1.0 1.0 0.00 0.00 0.00 98 1016.5
20260905163453 68 245 2.0 3.0 0.00 0.00 0.00 99 1016.8
20260905162949 68 198 0.0 1.0 0.00 0.00 0.00 99 1016.8
20260905162444 68 193 1.0 1.0 0.00 0.00 0.00 99 1016.7
20260905161939 67 188 1.0 1.0 0.00 0.00 0.00 99 1017.0
20260905161438 67 254 0.0 1.0 0.00 0.00 0.00 99 1016.7
20260905160936 66 215 0.0 0.0 0.00 0.00 0.00 99 1016.5
20260905160430 66 217 0.0 0.0 0.00 0.00 0.00 99 1016.8
20260905155930 66 46 1.0 2.0 0.00 0.00 0.00 99 1016.8
20260905155425 66 43 1.0 2.0 0.00 0.00 0.00 99 1017.1
20260905154923 66 30 1.0 1.0 0.00 0.00 0.00 99 1017.1
20260905154419 66 248 1.0 1.0 0.00 0.00 0.00 99 1017.0
20260905153915 65 150 1.0 1.0 0.00 0.00 0.00 99 1016.8
20260905153411 65 45 2.0 2.0 0.00 0.00 0.00 99 1016.8
20260905152910 65 55 4.0 5.0 0.00 0.00 0.00 99 1016.8
20260905152409 65 27 2.0 2.0 0.00 0.00 0.00 99 1017.0
20260905151905 65 235 0.0 1.0 0.00 0.00 0.00 99 1017.0
20260905151401 65 197 1.0 1.0 0.00 0.00 0.00 99 1017.0
20260905150900 65 256 1.0 1.0 0.00 0.00 0.00 99 1016.7
20260905150355 65 276 2.0 2.0 0.00 0.00 0.00 99 1016.5
20260905145852 65 287 1.0 1.0 0.00 0.00 0.00 99 1016.3
20260905145346 64 342 2.0 3.0 0.00 0.00 0.00 99 1016.0
20260905144846 64 225 1.0 1.0 0.00 0.00 0.00 99 1016.1
20260905144342 64 152 1.0 1.0 0.00 0.00 0.00 99 1016.0
20260905143839 64 209 0.0 0.0 0.00 0.00 0.00 99 1016.1
20260905143334 64 112 1.0 2.0 0.00 0.00 0.00 99 1016.1
20260905142833 64 269 1.0 1.0 0.00 0.00 0.00 99 1016.2
20260905142332 64 63 1.0 2.0 0.00 0.00 0.00 99 1016.0
20260905141829 64 284 2.0 2.0 0.00 0.00 0.00 99 1016.3
20260905141324 64 185 0.0 1.0 0.00 0.00 0.00 99 1016.3
20260905140820 64 225 1.0 1.0 0.00 0.00 0.00 99 1016.3
20260905140320 64 105 1.0 1.0 0.00 0.00 0.00 99 1016.4
20260905135818 64 226 0.0 1.0 0.00 0.00 0.00 99 1016.5
20260905135314 64 54 1.0 1.0 0.00 0.00 0.00 99 1016.2
20260905134810 64 313 1.0 2.0 0.00 0.00 0.00 99 1016.5
20260905134308 64 214 0.0 0.0 0.00 0.00 0.00 99 1016.2
20260905133803 64 135 1.0 1.0 0.00 0.00 0.00 99 1016.2
20260905133258 64 209 0.0 0.0 0.00 0.00 0.00 99 1016.2
20260905132757 64 215 1.0 1.0 0.00 0.00 0.00 99 1016.2
20260905132253 64 197 0.0 0.0 0.00 0.00 0.00 99 1016.2
20260905131748 64 227 1.0 1.0 0.00 0.00 0.00 99 1016.2
20260905131243 64 147 0.0 0.0 0.00 0.00 0.00 99 1016.1
20260905130738 64 188 1.0 1.0 0.00 0.00 0.00 99 1016.0
20260905130237 64 217 1.0 2.0 0.00 0.00 0.00 99 1015.8
20260905125732 64 163 1.0 1.0 0.00 0.00 0.00 99 1015.5
20260905125227 64 259 1.0 1.0 0.00 0.00 0.00 99 1015.4
20260905124724 64 168 1.0 1.0 0.00 0.00 0.00 99 1015.1
20260905124219 64 250 1.0 1.0 0.00 0.00 0.00 99 1015.0
20260905123714 63 64 2.0 2.0 0.00 0.00 0.00 99 1015.0
20260905123211 63 73 2.0 2.0 0.00 0.00 0.00 99 1015.1
20260905122711 63 61 4.0 5.0 0.00 0.00 0.00 99 1015.1
20260905122205 64 57 2.0 2.0 0.00 0.00 0.00 99 1015.1
20260905121700 64 303 1.0 1.0 0.00 0.00 0.00 99 1014.9
20260905121156 63 197 0.0 1.0 0.00 0.00 0.00 99 1014.9
20260905120655 63 190 0.0 0.0 0.00 0.00 0.00 99 1015.2
20260905120150 63 212 0.0 1.0 0.00 0.00 0.00 99 1015.1
20260905115644 63 188 1.0 1.0 0.00 0.00 0.00 99 1015.1
20260905115139 63 240 1.0 1.0 0.00 0.00 0.00 99 1015.1
20260905114638 63 48 1.0 2.0 0.00 0.00 0.00 99 1015.2
20260905114137 63 65 3.0 3.0 0.00 0.00 0.00 99 1014.7
20260905113632 63 66 1.0 1.0 0.00 0.00 0.00 99 1014.8
20260905113128 63 52 2.0 3.0 0.00 0.00 0.00 99 1015.0
20260905112627 63 310 1.0 1.0 0.00 0.00 0.00 99 1014.9
20260905112124 63 72 2.0 2.0 0.00 0.00 0.00 99 1014.9
20260905111618 63 130 2.0 2.0 0.00 0.00 0.00 99 1014.9